Regional Weather Roundup
Issued by NWS Little Rock, AR

Home | Current Version | Previous Version | Graphics & Text | Print | Product List | Glossary On
Versions: 1 2 3 4 5 6 7 8 9 10 11 12 13 14 15 16 17 18 19 20 21 22 23 24 25 26 27 28 29 30 31 32 33 34 35 36 37 38 39 40 41 42 43 44 45 46 47 48 49
000
ASUS44 KLZK 022205
RWRLZK

WEATHER ROUNDUP FOR ARKANSAS
NATIONAL WEATHER SERVICE LITTLE ROCK AR
500 PM CDT WED SEP 02 2015

NOTE: "FAIR" INDICATES FEW OR NO CLOUDS BELOW 12,000 FEET WITH NO
SIGNIFICANT WEATHER AND/OR OBSTRUCTIONS TO VISIBILITY.

ARZ001-003-010-029-022300-
NORTHWEST ARKANSAS

CITY           SKY/WX    TMP DP  RH WIND       PRES   REMARKS
FAYETTEVILLE   SUNNY     85  68  56 S12       30.02F HX  88
FORT SMITH     SUNNY     91  60  35 S6        29.96F HX  90
HARRISON       SUNNY     87  66  49 S8        30.03F HX  89
BENTONVILLE    MOSUNNY   88  64  45 SW10      30.03F HX  89
ROGERS         SUNNY     87  67  51 S8        30.03F HX  90
SILOAM SPGS    SUNNY     88  66  48 S12       30.00F HX  90
HIGHFILL       MOSUNNY   86  69  56 S8        30.02F HX  90
SPRINGDALE     MOSUNNY   86  66  51 S9G17     30.04F HX  88
$$

ARZ004-005-016-022300-
NORTH CENTRAL ARKANSAS

CITY           SKY/WX    TMP DP  RH WIND       PRES   REMARKS
BATESVILLE     SUNNY     91  68  46 SE6       30.00F HX  95
FLIPPIN        SUNNY     91  61  35 SW7       29.98F HX  91
MTN HOME       SUNNY     89  64  43 S6        30.00F HX  90
$$

ARZ040-041-022300-
WEST CENTRAL ARKANSAS

CITY           SKY/WX    TMP DP  RH WIND       PRES   REMARKS
MENA           MOSUNNY   91  66  43 SE6       30.01F HX  94
MOUNT IDA      MOSUNNY   91  65  41 SW8       29.98F HX  93
$$

ARZ009-017-025-026-028-022300-
NORTHEAST ARKANSAS

CITY           SKY/WX    TMP DP  RH WIND       PRES   REMARKS
JONESBORO      MOSUNNY   86  69  56 S7        30.00F HX  90
NEWPORT        SUNNY     90  71  53 SE6       30.01F HX  96
WALNUT RIDGE   SUNNY     90  66  45 E3        29.99F HX  92
BLYTHEVILLE    SUNNY     92  70  48 VRB3      30.00F HX  97
$$

ARZ022-023-033-042-044-022300-
CENTRAL ARKANSAS

CITY           SKY/WX    TMP DP  RH WIND       PRES   REMARKS
LITTLE ROCK    TSTM      80  70  71 NW12      30.03R
N LITTLE ROCK  PTSUNNY   74  73  97 W5        30.03R
SEARCY         MOSUNNY   90  70  51 E6        30.01F HX  95
HOT SPRINGS    PTSUNNY   88  66  48 SE5       30.00F HX  90
RUSSELLVILLE   SUNNY     93  66  40 S5        29.97F HX  96
$$

ARZ036-022300-
EAST ARKANSAS

CITY           SKY/WX    TMP DP  RH WIND       PRES   REMARKS
WEST MEMPHIS   TSTM      80  73  79 SE8       30.00F
$$

ARZ050-053-066-070-073-022300-
SOUTHWEST ARKANSAS

CITY           SKY/WX    TMP DP  RH WIND       PRES   REMARKS
ARKADELPHIA    FAIR      89  71  55 E9        30.00S HX  95
CAMDEN         MOSUNNY   75  66  73 NE6       30.01F
TEXARKANA      MOSUNNY   91  65  41 VRB5      29.98F HX  93
EL DORADO      MOSUNNY   87  67  51 E12       30.00S HX  90
DE QUEEN       MOSUNNY   90  68  48 E8        29.95F HX  94
$$

ARZ056-057-069-022300-
SOUTHEAST ARKANSAS

CITY           SKY/WX    TMP DP  RH WIND       PRES   REMARKS
PINE BLUFF     CLOUDY    81  73  76 S7        30.03S HX  86
STUTTGART      MOSUNNY   91  70  49 SE7       30.01S HX  97
MONTICELLO     TSTM      74  71  91 NW9       30.02F

$$




USA.gov is the U.S. government's official web portal to all federal, state and local government web resources and services.